Location: Santa Giusta
(39.8800°N, 8.6069°E)
Time: 17:38:12
(UTC+00:00)

Lacrosse 5 - Pass Details

Date: 02 February 2023
Orbit: 714 x 724 km, 57.0° (Epoch: 09 March)

Event Time Altitude Azimuth Distance (km) Brightness Sun altitude
Rises 19:19:25 0° 268° (W) 3,131 6.4 -29.7°
Reaches altitude 10° 19:22:22 10° 285° (WNW) 2,214 5.3 -30.3°
Maximum altitude 19:26:10 21° 334° (NNW) 1,612 3.9 -31.0°
Enters shadow 19:26:44 20° 343° (NNW) 1,628 3.8 -31.1°
